Time,TemperatureF,DewpointF,PressureIn,WindDirection,WindDirectionDegrees,WindSpeedMPH,WindSpeedGustMPH,Humidity,HourlyPrecipIn,Conditions,Clouds,dailyrainin,SoftwareType,DateUTC
2013-06-16 00:08:00,67.4,61.0,29.84,SW,236,1.0,8.0,81,0.00,,,0.00,weatherlink.com 1.10,2013-06-16 04:08:00,
2013-06-16 00:23:00,67.2,61.0,29.84,SSW,205,2.0,8.0,81,0.00,,,0.00,weatherlink.com 1.10,2013-06-16 04:23:00,
2013-06-16 00:38:00,67.1,61.0,29.83,SSW,212,8.0,8.0,81,0.00,,,0.00,weatherlink.com 1.10,2013-06-16 04:38:00,
2013-06-16 00:53:00,67.0,61.0,29.82,SW,233,5.0,8.0,81,0.00,,,0.00,weatherlink.com 1.10,2013-06-16 04:53:00,
2013-06-16 01:08:00,66.6,61.0,29.80,SSW,210,4.0,8.0,83,0.01,,,0.01,weatherlink.com 1.10,2013-06-16 05:08:00,
2013-06-16 01:23:00,65.5,62.0,29.81,WSW,243,5.0,8.0,87,0.01,,,0.01,weatherlink.com 1.10,2013-06-16 05:23:00,
2013-06-16 01:38:00,65.4,62.0,29.81,SW,226,3.0,5.0,87,0.01,,,0.01,weatherlink.com 1.10,2013-06-16 05:38:00,
2013-06-16 01:53:00,65.4,62.0,29.81,West,272,2.0,5.0,87,0.01,,,0.01,weatherlink.com 1.10,2013-06-16 05:53:00,
2013-06-16 02:08:00,65.5,62.0,29.81,SW,225,5.0,10.0,87,0.00,,,0.01,weatherlink.com 1.10,2013-06-16 06:08:00,
2013-06-16 02:23:00,64.7,62.0,29.79,WSW,246,3.0,5.0,90,0.03,,,0.04,weatherlink.com 1.10,2013-06-16 06:23:00,
2013-06-16 02:38:00,64.1,62.0,29.78,West,266,5.0,6.0,93,0.04,,,0.05,weatherlink.com 1.10,2013-06-16 06:38:00,
2013-06-16 02:53:00,63.9,62.0,29.76,SW,235,2.0,4.0,93,0.06,,,0.07,weatherlink.com 1.10,2013-06-16 06:53:00,
2013-06-16 03:08:00,63.7,62.0,29.76,West,262,1.0,6.0,94,0.08,,,0.09,weatherlink.com 1.10,2013-06-16 07:08:00,
2013-06-16 03:23:00,63.5,62.0,29.76,WSW,252,3.0,4.0,95,0.13,,,0.17,weatherlink.com 1.10,2013-06-16 07:23:00,
2013-06-16 03:38:00,63.5,62.0,29.75,WSW,240,2.0,8.0,96,0.18,,,0.23,weatherlink.com 1.10,2013-06-16 07:38:00,
2013-06-16 03:53:00,63.4,62.0,29.74,WSW,239,5.0,6.0,96,0.19,,,0.26,weatherlink.com 1.10,2013-06-16 07:53:00,
2013-06-16 04:08:00,63.3,62.0,29.73,WSW,248,0.0,5.0,96,0.20,,,0.29,weatherlink.com 1.10,2013-06-16 08:08:00,
2013-06-16 04:23:00,63.3,62.0,29.73,WSW,239,3.0,4.0,96,0.14,,,0.31,weatherlink.com 1.10,2013-06-16 08:23:00,
2013-06-16 04:38:00,63.3,63.0,29.73,WSW,244,3.0,4.0,97,0.15,,,0.38,weatherlink.com 1.10,2013-06-16 08:38:00,
2013-06-16 04:53:00,63.3,63.0,29.72,SSE,160,0.0,3.0,97,0.25,,,0.51,weatherlink.com 1.10,2013-06-16 08:53:00,
2013-06-16 05:08:00,63.3,63.0,29.72,WSW,240,0.0,2.0,97,0.31,,,0.60,weatherlink.com 1.10,2013-06-16 09:08:00,
2013-06-16 05:24:00,63.4,63.0,29.71,WSW,245,2.0,3.0,97,0.33,,,0.64,weatherlink.com 1.10,2013-06-16 09:24:00,
2013-06-16 05:39:00,63.5,63.0,29.70,SSW,200,0.0,3.0,97,0.26,,,0.65,weatherlink.com 1.10,2013-06-16 09:39:00,
2013-06-16 05:54:00,63.6,63.0,29.70,South,190,1.0,4.0,97,0.14,,,0.65,weatherlink.com 1.10,2013-06-16 09:54:00,
2013-06-16 06:09:00,63.8,63.0,29.70,WSW,246,2.0,3.0,97,0.04,,,0.65,weatherlink.com 1.10,2013-06-16 10:09:00,
2013-06-16 06:24:00,64.0,64.0,29.71,NW,309,4.0,8.0,98,0.01,,,0.65,weatherlink.com 1.10,2013-06-16 10:24:00,
2013-06-16 06:39:00,64.0,63.0,29.71,NW,311,2.0,6.0,97,0.00,,,0.65,weatherlink.com 1.10,2013-06-16 10:39:00,
2013-06-16 06:54:00,64.0,63.0,29.72,WNW,302,3.0,7.0,97,0.00,,,0.65,weatherlink.com 1.10,2013-06-16 10:54:00,
2013-06-16 07:09:00,64.2,63.0,29.73,WNW,290,4.0,7.0,97,0.00,,,0.65,weatherlink.com 1.10,2013-06-16 11:09:00,
2013-06-16 07:24:00,64.3,64.0,29.73,WNW,300,5.0,9.0,97,0.00,,,0.65,weatherlink.com 1.10,2013-06-16 11:24:00,
2013-06-16 07:39:00,64.6,64.0,29.74,WNW,294,4.0,13.0,96,0.00,,,0.65,weatherlink.com 1.10,2013-06-16 11:39:00,
2013-06-16 07:54:00,64.7,63.0,29.74,NW,305,6.0,15.0,95,0.00,,,0.65,weatherlink.com 1.10,2013-06-16 11:54:00,
2013-06-16 08:09:00,64.8,63.0,29.75,WNW,298,6.0,13.0,95,0.00,,,0.65,weatherlink.com 1.10,2013-06-16 12:09:00,
2013-06-16 08:31:00,65.3,64.0,29.75,WNW,287,3.0,10.0,94,0.00,,,0.65,weatherlink.com 1.10,2013-06-16 12:31:00,
2013-06-16 08:39:00,65.4,64.0,29.75,WNW,301,5.0,9.0,94,0.00,,,0.65,weatherlink.com 1.10,2013-06-16 12:39:00,
2013-06-16 08:54:00,66.2,65.0,29.75,West,273,2.0,8.0,94,0.00,,,0.65,weatherlink.com 1.10,2013-06-16 12:54:00,
2013-06-16 09:09:00,67.6,65.0,29.76,WSW,257,6.0,10.0,91,0.00,,,0.65,weatherlink.com 1.10,2013-06-16 13:09:00,
2013-06-16 09:24:00,68.2,65.0,29.76,WNW,284,8.0,11.0,90,0.00,,,0.65,weatherlink.com 1.10,2013-06-16 13:24:00,
2013-06-16 09:39:00,68.8,65.0,29.76,NW,305,9.0,13.0,87,0.00,,,0.65,weatherlink.com 1.10,2013-06-16 13:39:00,
2013-06-16 09:54:00,68.6,64.0,29.76,NW,309,5.0,14.0,86,0.00,,,0.65,weatherlink.com 1.10,2013-06-16 13:54:00,
2013-06-16 10:09:00,69.3,64.0,29.76,West,277,6.0,14.0,83,0.00,,,0.65,weatherlink.com 1.10,2013-06-16 14:09:00,
2013-06-16 10:24:00,70.1,64.0,29.76,WSW,253,5.0,12.0,82,0.00,,,0.65,weatherlink.com 1.10,2013-06-16 14:24:00,
2013-06-16 10:39:00,70.8,65.0,29.76,West,269,6.0,15.0,81,0.00,,,0.65,weatherlink.com 1.10,2013-06-16 14:39:00,
2013-06-16 10:54:00,70.9,65.0,29.76,WNW,298,5.0,13.0,81,0.00,,,0.65,weatherlink.com 1.10,2013-06-16 14:54:00,
2013-06-16 11:09:00,72.2,65.0,29.77,NW,323,3.0,11.0,78,0.00,,,0.65,weatherlink.com 1.10,2013-06-16 15:09:00,
2013-06-16 11:24:00,72.2,65.0,29.77,WNW,302,9.0,12.0,78,0.00,,,0.65,weatherlink.com 1.10,2013-06-16 15:24:00,
2013-06-16 11:39:00,72.4,64.0,29.77,NNW,328,5.0,10.0,76,0.00,,,0.65,weatherlink.com 1.10,2013-06-16 15:39:00,
2013-06-16 11:54:00,72.6,65.0,29.77,WNW,302,2.0,8.0,77,0.00,,,0.65,weatherlink.com 1.10,2013-06-16 15:54:00,
2013-06-16 12:09:00,73.7,66.0,29.77,WNW,301,3.0,8.0,76,0.00,,,0.65,weatherlink.com 1.10,2013-06-16 16:09:00,
2013-06-16 12:24:00,74.4,65.0,29.77,WSW,244,3.0,9.0,72,0.00,,,0.65,weatherlink.com 1.10,2013-06-16 16:24:00,
2013-06-16 12:39:00,75.1,65.0,29.77,West,266,4.0,10.0,71,0.00,,,0.65,weatherlink.com 1.10,2013-06-16 16:39:00,
2013-06-16 12:54:00,76.4,65.0,29.77,WNW,290,6.0,7.0,68,0.00,,,0.65,weatherlink.com 1.10,2013-06-16 16:54:00,
2013-06-16 13:09:00,76.2,66.0,29.77,West,269,1.0,10.0,70,0.00,,,0.65,weatherlink.com 1.10,2013-06-16 17:09:00,
2013-06-16 13:24:00,77.1,66.0,29.77,WNW,297,2.0,10.0,69,0.00,,,0.65,weatherlink.com 1.10,2013-06-16 17:24:00,
2013-06-16 13:39:00,77.2,64.0,29.77,WNW,284,6.0,12.0,64,0.00,,,0.65,weatherlink.com 1.10,2013-06-16 17:39:00,
2013-06-16 13:54:00,77.4,64.0,29.77,WSW,252,5.0,13.0,64,0.00,,,0.65,weatherlink.com 1.10,2013-06-16 17:54:00,
2013-06-16 14:10:00,77.4,65.0,29.77,SW,219,3.0,13.0,65,0.00,,,0.65,weatherlink.com 1.10,2013-06-16 18:10:00,
2013-06-16 14:25:00,79.0,64.0,29.77,NW,323,6.0,9.0,60,0.00,,,0.65,weatherlink.com 1.10,2013-06-16 18:25:00,
2013-06-16 14:40:00,77.7,63.0,29.76,West,274,8.0,11.0,60,0.00,,,0.65,weatherlink.com 1.10,2013-06-16 18:40:00,
2013-06-16 14:55:00,78.9,65.0,29.76,WSW,255,3.0,8.0,62,0.00,,,0.65,weatherlink.com 1.10,2013-06-16 18:55:00,
2013-06-16 15:10:00,80.0,62.0,29.76,WNW,300,5.0,14.0,54,0.00,,,0.65,weatherlink.com 1.10,2013-06-16 19:10:00,
2013-06-16 15:25:00,79.6,63.0,29.76,West,269,4.0,12.0,58,0.00,,,0.65,weatherlink.com 1.10,2013-06-16 19:25:00,
2013-06-16 15:40:00,79.0,63.0,29.76,WNW,291,3.0,9.0,58,0.00,,,0.65,weatherlink.com 1.10,2013-06-16 19:40:00,
2013-06-16 15:55:00,79.7,64.0,29.76,NW,310,5.0,13.0,59,0.00,,,0.65,weatherlink.com 1.10,2013-06-16 19:55:00,
2013-06-16 16:10:00,81.0,59.0,29.76,West,280,6.0,15.0,48,0.00,,,0.65,weatherlink.com 1.10,2013-06-16 20:10:00,
2013-06-16 16:25:00,81.1,56.0,29.76,WNW,301,6.0,17.0,43,0.00,,,0.65,weatherlink.com 1.10,2013-06-16 20:25:00,
2013-06-16 16:40:00,81.5,57.0,29.76,WNW,302,8.0,18.0,44,0.00,,,0.65,weatherlink.com 1.10,2013-06-16 20:40:00,
2013-06-16 16:55:00,81.4,56.0,29.76,WNW,294,6.0,14.0,42,0.00,,,0.65,weatherlink.com 1.10,2013-06-16 20:55:00,
2013-06-16 17:10:00,81.7,54.0,29.76,West,262,11.0,18.0,39,0.00,,,0.65,weatherlink.com 1.10,2013-06-16 21:10:00,
2013-06-16 17:41:00,81.0,58.0,29.76,West,267,6.0,18.0,45,0.00,,,0.65,weatherlink.com 1.10,2013-06-16 21:41:00,
2013-06-16 17:55:00,81.9,60.0,29.76,West,273,10.0,16.0,47,0.00,,,0.65,weatherlink.com 1.10,2013-06-16 21:55:00,
2013-06-16 18:10:00,81.5,57.0,29.76,West,280,5.0,18.0,44,0.00,,,0.65,weatherlink.com 1.10,2013-06-16 22:10:00,
2013-06-16 18:25:00,81.0,58.0,29.76,WSW,245,4.0,19.0,46,0.00,,,0.65,weatherlink.com 1.10,2013-06-16 22:25:00,
2013-06-16 18:40:00,80.8,55.0,29.76,WNW,302,10.0,17.0,41,0.00,,,0.65,weatherlink.com 1.10,2013-06-16 22:40:00,
2013-06-16 18:55:00,80.0,56.0,29.77,WSW,253,4.0,18.0,44,0.00,,,0.65,weatherlink.com 1.10,2013-06-16 22:55:00,
2013-06-16 19:10:00,80.1,56.0,29.77,WNW,302,9.0,16.0,44,0.00,,,0.65,weatherlink.com 1.10,2013-06-16 23:10:00,
2013-06-16 19:25:00,80.3,54.0,29.76,West,266,7.0,17.0,41,0.00,,,0.65,weatherlink.com 1.10,2013-06-16 23:25:00,
2013-06-16 19:40:00,80.1,54.0,29.77,WNW,301,3.0,16.0,40,0.00,,,0.65,weatherlink.com 1.10,2013-06-16 23:40:00,
2013-06-16 19:55:00,79.8,53.0,29.77,WSW,256,6.0,13.0,40,0.00,,,0.65,weatherlink.com 1.10,2013-06-16 23:55:00,
2013-06-16 20:10:00,79.1,53.0,29.78,West,278,8.0,11.0,41,0.00,,,0.65,weatherlink.com 1.10,2013-06-17 00:10:00,
2013-06-16 20:25:00,77.8,53.0,29.78,WSW,246,5.0,12.0,43,0.00,,,0.65,weatherlink.com 1.10,2013-06-17 00:25:00,
2013-06-16 20:40:00,77.0,53.0,29.78,WNW,294,5.0,11.0,44,0.00,,,0.65,weatherlink.com 1.10,2013-06-17 00:40:00,
2013-06-16 20:55:00,76.2,54.0,29.78,WNW,291,5.0,11.0,46,0.00,,,0.65,weatherlink.com 1.10,2013-06-17 00:55:00,
2013-06-16 21:10:00,75.0,54.0,29.79,SW,229,2.0,8.0,48,0.00,,,0.65,weatherlink.com 1.10,2013-06-17 01:10:00,
2013-06-16 21:25:00,73.8,55.0,29.80,WSW,246,1.0,4.0,52,0.00,,,0.65,weatherlink.com 1.10,2013-06-17 01:25:00,
2013-06-16 21:40:00,72.5,56.0,29.80,WSW,249,2.0,2.0,56,0.00,,,0.65,weatherlink.com 1.10,2013-06-17 01:40:00,
2013-06-16 21:55:00,71.6,56.0,29.80,WSW,244,1.0,3.0,59,0.00,,,0.65,weatherlink.com 1.10,2013-06-17 01:55:00,
2013-06-16 22:10:00,71.2,56.0,29.81,West,266,2.0,4.0,59,0.00,,,0.65,weatherlink.com 1.10,2013-06-17 02:10:00,
2013-06-16 22:25:00,71.0,56.0,29.81,WSW,240,2.0,4.0,60,0.00,,,0.65,weatherlink.com 1.10,2013-06-17 02:25:00,
2013-06-16 22:40:00,70.5,57.0,29.82,WSW,248,3.0,4.0,62,0.00,,,0.65,weatherlink.com 1.10,2013-06-17 02:40:00,
2013-06-16 22:55:00,70.2,58.0,29.82,WSW,257,2.0,4.0,65,0.00,,,0.65,weatherlink.com 1.10,2013-06-17 02:55:00,
2013-06-16 23:10:00,69.8,59.0,29.81,WSW,257,3.0,4.0,68,0.00,,,0.65,weatherlink.com 1.10,2013-06-17 03:10:00,
2013-06-16 23:25:00,69.6,59.0,29.81,West,259,2.0,3.0,70,0.00,,,0.65,weatherlink.com 1.10,2013-06-17 03:25:00,
2013-06-16 23:40:00,69.5,60.0,29.81,WSW,250,2.0,6.0,71,0.00,,,0.65,weatherlink.com 1.10,2013-06-17 03:40:00,
2013-06-16 23:55:00,69.1,60.0,29.81,WSW,242,2.0,4.0,73,0.00,,,0.65,weatherlink.com 1.10,2013-06-17 03:55:00,